Weather History for Milwaukee, WI

Change the Weather History Date:

Monday, July 14, 2014

  Actual Average Record
Temperature  
Mean Temperature 69 °F 72 °F  
Max Temperature 79 °F 80 °F 102 °F (1995)
Min Temperature 59 °F 64 °F 48 °F (1950)
Degree Days  
Heating Degree Days 0 0  
Month to date heating degree days 7 4  
Since 1 June heating degree days 81 88  
Since 1 July heating degree days 7 4  
Cooling Degree Days 4 7  
Month to date cooling degree days 68 97  
Year to date cooling degree days 176 247  
Since 1 June cooling degree days 158 217  
Growing Degree Days 20 (Base 50)    
Moisture  
Dew Point 50 °F    
Average Humidity 58    
Maximum Humidity 84    
Minimum Humidity 32    
Precipitation  
Precipitation 0.00 in 0.12 in 1.66 in (1933)
Month to date precipitation 1.73 1.73  
Year to date precipitation 19.02 18.27  
Snow  
Snow 0.00 in 0.00 in 0.00 in ()
Month to date snowfall 0.0 0.0  
Since 1 June snowfall 0.0 0.0  
Since 1 July snowfall 0.0 0.0  
Snow Depth 0.00 in    
Sea Level Pressure  
Sea Level Pressure 29.84 in    
Wind  
Wind Speed 8 mph (WNW)    
Max Wind Speed 20 mph    
Max Gust Speed 27 mph    
Visibility 10 miles    
Events      
T = Trace of Precipitation, MM = Missing Value Source: NWS Daily Summary

Daily Weather History Graph

Daily Weather History Graph

Search for Another Location

Airport:

Trip Planner

Search our weather history database for the weather conditions in past years. The results will help you decide how hot, cold, wet, or windy it might be!

Date:

Astronomy

Jul. 14, 2014 Rise Set
Actual Time 5:25 AM CDT 8:29 PM CDT
Civil Twilight 4:51 AM CDT 9:03 PM CDT
Nautical Twilight 4:07 AM CDT 9:46 PM CDT
Astronomical Twilight 3:15 AM CDT 10:38 PM CDT
Moon 9:52 PM CDT (7/14) 8:12 AM CDT (7/14)
Length of Visible Light 16h 11m
Length of Day
15h 03m
Waning Gibbous, 93% of the Moon is Illuminated
Jul 14
Waning Gibbous
Jul 18
Last Quarter
Jul 26
New
Aug 3
First Quarter
Aug 10
Full

Hourly Weather History & Observations

Time (CDT) Temp. Dew Point Humidity Pressure Visibility Wind Dir Wind Speed Gust Speed Precip Events Conditions
12:52 AM 66.2 °F 51.8 °F 60% 29.90 in 10.0 mi WNW 3.5 mph - N/A   Partly Cloudy
1:52 AM 62.6 °F 51.8 °F 68% 29.88 in 10.0 mi West 3.5 mph - N/A   Clear
2:52 AM 62.1 °F 51.1 °F 67% 29.87 in 10.0 mi Calm Calm - N/A   Clear
3:52 AM 60.1 °F 52.0 °F 75% 29.86 in 10.0 mi Calm Calm - N/A   Clear
4:52 AM 60.1 °F 53.1 °F 78% 29.86 in 10.0 mi Calm Calm - N/A   Clear
5:52 AM 63.0 °F 57.0 °F 81% 29.85 in 10.0 mi Calm Calm - N/A   Partly Cloudy
6:52 AM 64.9 °F 57.0 °F 75% 29.86 in 10.0 mi Calm Calm - N/A   Scattered Clouds
7:52 AM 71.1 °F 51.1 °F 49% 29.85 in 10.0 mi WSW 4.6 mph - N/A   Scattered Clouds
8:52 AM 73.0 °F 52.0 °F 48% 29.85 in 10.0 mi WSW 10.4 mph - N/A   Scattered Clouds
9:52 AM 73.0 °F 53.1 °F 49% 29.85 in 10.0 mi WSW 9.2 mph 17.3 mph N/A   Mostly Cloudy
10:52 AM 73.9 °F 54.0 °F 50% 29.85 in 10.0 mi WSW 9.2 mph - N/A   Mostly Cloudy
11:52 AM 75.9 °F 46.0 °F 35% 29.83 in 10.0 mi West 10.4 mph 17.3 mph N/A   Mostly Cloudy
12:52 PM 77.0 °F 46.9 °F 34% 29.81 in 10.0 mi West 8.1 mph - N/A   Scattered Clouds
1:52 PM 78.8 °F 46.4 °F 32% 29.80 in 10.0 mi West 11.5 mph - N/A   Partly Cloudy
2:52 PM 77.0 °F 46.0 °F 33% 29.78 in 10.0 mi NW 13.8 mph - N/A   Scattered Clouds
3:52 PM 77.0 °F 46.9 °F 34% 29.79 in 10.0 mi West 12.7 mph - N/A   Scattered Clouds
4:52 PM 73.9 °F 50.0 °F 43% 29.81 in 10.0 mi NW 13.8 mph - N/A   Mostly Cloudy
5:52 PM 73.0 °F 48.9 °F 42% 29.80 in 10.0 mi NW 11.5 mph 19.6 mph N/A   Mostly Cloudy
6:52 PM 70.0 °F 51.1 °F 51% 29.81 in 10.0 mi NNW 17.3 mph 21.9 mph N/A   Mostly Cloudy
7:52 PM 66.9 °F 46.9 °F 49% 29.83 in 10.0 mi NNW 13.8 mph 21.9 mph N/A   Mostly Cloudy
8:52 PM 66.0 °F 48.0 °F 52% 29.84 in 10.0 mi West 6.9 mph - N/A   Mostly Cloudy
9:52 PM 64.0 °F 48.9 °F 58% 29.85 in 10.0 mi NNW 10.4 mph - N/A   Mostly Cloudy
10:52 PM 63.0 °F 46.9 °F 56% 29.84 in 10.0 mi NW 12.7 mph - N/A   Mostly Cloudy
11:52 PM 61.0 °F 46.0 °F 58% 29.85 in 10.0 mi WNW 10.4 mph - N/A   Partly Cloudy